Location: UMBC
(39.2555°N, 76.7093°W)
Time: 01:26:46
(UTC+01:00)

Amateur Radio Satellites - All Passes

Search period start: 11 February 2016 00:56
Search period end: 12 February 2016 00:56
Location: UMBC, 39.2555°N, 76.7093°W

Satellite Date Start Highest point End Downlink Frequencies (MHz)
Time Altitude Azimuth
DOVE 4 11 Feb 01:00:19 01:05:27 82° 77° (ENE) 01:10:19 437.250
Cosmos 2499 11 Feb 01:00:21 01:03:27 12° 58° (ENE) 01:06:28 435.465 / 435.565
CANX-2 11 Feb 01:00:43 01:04:30 34° 71° (ENE) 01:08:20 2200.000
AO-85 11 Feb 01:15:45 01:20:54 89° 224° (SW) 01:25:34 145.980
GOMX 1 11 Feb 01:23:35 01:28:27 33° 263° (W) 01:33:09 467.674
COMPASS 1 11 Feb 01:40:07 01:44:04 46° 73° (ENE) 01:48:05 437.405
STRAND 1 11 Feb 01:42:54 01:48:01 65° 287° (WNW) 01:53:07 437.568
Oscar 11 11 Feb 01:47:07 01:50:12 20° 67° (ENE) 01:53:17 145.826/435.025
PCSat 11 Feb 01:48:06 01:53:32 69° 60° (ENE) 01:58:55 145.827
CINEMA 3 11 Feb 01:49:06 01:53:46 88° 258° (WSW) 01:58:13 145.822/145.860
UWE-3 11 Feb 01:50:35 01:53:56 23° 69° (ENE) 01:57:14 435.000/436.395/437.385
CUTE 1.7 + AOD 2 11 Feb 01:50:45 01:54:56 70° 259° (W) 01:59:10 437.475
CUBEBUG 2 11 Feb 01:51:06 01:54:57 32° 71° (ENE) 01:58:43 437.445
SEEDS 11 Feb 01:55:36 01:59:46 83° 255° (WSW) 02:03:59 437.485
PRISM 11 Feb 01:56:02 02:00:10 58° 101° (E) 02:04:15 437.425
GONETS M04 11 Feb 02:06:22 02:15:14 81° 82° (E) 02:24:05
AAUSAT CUBESAT 2 11 Feb 02:07:47 02:11:53 81° 77° (ENE) 02:16:04 437.432
RS-15 11 Feb 02:17:34 02:29:48 74° 56° (NE) 02:42:07 29.354- 29.394
ISS 11 Feb 02:19:26 02:21:21 15° 18° (NNE) 02:23:16 145.825
HO-68 11 Feb 02:21:18 02:28:05 45° 261° (W) 02:34:55 435.675
AIST 1 11 Feb 02:32:32 02:34:41 13° 70° (ENE) 02:36:50
AIST 2 11 Feb 02:36:09 02:37:17 11° 319° (NW) 02:38:25 435.215
CANX-2 11 Feb 02:37:31 02:40:27 18° 267° (W) 02:43:24 2200.000
ZACube-1 11 Feb 02:41:44 02:45:52 60° 75° (ENE) 02:49:59 437.345
DOVE 4 11 Feb 02:42:57 02:43:34 10° 270° (W) 02:44:11 437.250
Cosmos 2499 11 Feb 02:50:03 02:58:26 69° 80° (E) 03:06:06 435.465 / 435.565
FUNcube-1 11 Feb 02:50:16 02:54:28 73° 76° (ENE) 02:58:37 145.935
HUMSAT D 11 Feb 02:53:44 02:56:57 23° 69° (ENE) 03:00:10 437.325/437.525
DELFI C3 11 Feb 03:14:44 03:18:42 78° 259° (W) 03:22:42 145.870
COMPASS 1 11 Feb 03:17:56 03:19:54 13° 269° (W) 03:21:54 437.405
Oscar 11 11 Feb 03:22:10 03:26:05 34° 263° (W) 03:30:02 145.826/435.025
UWE-3 11 Feb 03:26:37 03:30:17 27° 264° (W) 03:33:53 435.000/436.395/437.385
CUBEBUG 2 11 Feb 03:28:27 03:31:37 20° 266° (W) 03:34:44 437.445
PCSat 11 Feb 03:33:20 03:36:17 15° 256° (WSW) 03:39:14 145.827
PRISM 11 Feb 03:33:26 03:34:59 12° 297° (WNW) 03:36:32 437.425
CUBEBUG 1 11 Feb 03:33:35 03:34:53 11° 62° (ENE) 03:36:10 437.445
DX 1 11 Feb 03:36:29 03:39:09 16° 65° (ENE) 03:41:50 434.975-435.025
ESTCUBE 1 11 Feb 03:40:09 03:43:16 19° 66° (ENE) 03:46:24 437.505/2401.250
ANTELSAT 11 Feb 03:48:49 03:52:20 23° 95° (E) 03:55:53 437.575/2403.000
ISS 11 Feb 03:55:04 03:58:18 67° 37° (NE) 04:01:31 145.825
TIGRISAT 11 Feb 03:55:15 03:58:54 26° 96° (E) 04:02:36 435.000
GONETS M04 11 Feb 04:05:12 04:10:55 20° 281° (W) 04:16:40
AIST 1 11 Feb 04:08:24 04:12:35 47° 267° (W) 04:16:43
HUMSAT D 11 Feb 04:29:03 04:32:28 26° 264° (W) 04:35:55 437.325/437.525
RS-15 11 Feb 04:31:11 04:41:15 32° 257° (WSW) 04:51:24 29.354- 29.394
VELOX 1 11 Feb 04:32:32 04:36:55 59° 74° (ENE) 04:41:19 145.980
UNISAT 6 11 Feb 04:39:44 04:44:06 89° 92° (E) 04:48:33 437.425
POLYITAN 1 11 Feb 04:41:49 04:44:59 21° 95° (E) 04:48:10 437.675
QB50P2 11 Feb 04:42:21 04:45:37 22° 95° (E) 04:48:52 145.880/145.840
Cosmos 2499 11 Feb 04:44:42 04:50:34 22° 280° (W) 04:56:11 435.465 / 435.565
AISAT 11 Feb 04:49:18 04:53:47 85° 257° (WSW) 04:58:16 437.250
50 SAT 11 Feb 04:50:32 04:54:12 63° 260° (W) 04:57:54 437.505
UKube-1 11 Feb 04:56:44 05:01:04 79° 256° (WSW) 05:05:26 .
SPROUT 11 Feb 05:04:42 05:08:40 37° 72° (ENE) 05:12:38 437.525
CUBEBUG 1 11 Feb 05:06:09 05:10:34 71° 258° (WSW) 05:15:00 437.445
DX 1 11 Feb 05:10:45 05:14:58 46° 260° (W) 05:19:12 434.975-435.025
POPSAT HIP 1 11 Feb 05:11:15 05:15:17 44° 99° (E) 05:19:17 437.405
TISAT 1 11 Feb 05:11:19 05:14:00 17° 66° (ENE) 05:16:40 437.305
NANOSAT C BR1 11 Feb 05:15:17 05:19:21 48° 100° (E) 05:23:23 145.865
ESTCUBE 1 11 Feb 05:15:29 05:19:45 41° 262° (W) 05:24:04 437.505/2401.250
DUCHIFAT 1 11 Feb 05:16:15 05:20:18 46° 99° (E) 05:24:19 145.980
QB50P1 11 Feb 05:23:41 05:27:53 63° 102° (ESE) 05:32:01 145.935-145.965
ANTELSAT 11 Feb 05:25:16 05:29:01 29° 290° (WNW) 05:32:50 437.575/2403.000
TIGRISAT 11 Feb 05:31:56 05:35:31 26° 291° (WNW) 05:39:10 435.000
ISS 11 Feb 05:33:09 05:34:20 12° 232° (SW) 05:35:31 145.825
CUSAT 1 11 Feb 05:47:03 05:50:13 13° 78° (ENE) 05:53:24 437.405
VELOX 1 11 Feb 06:12:01 06:13:45 12° 269° (W) 06:15:28 145.980
BUGSAT 1 11 Feb 06:13:30 06:17:32 70° 285° (WNW) 06:21:30 437.445
POLYITAN 1 11 Feb 06:17:09 06:20:49 30° 290° (WNW) 06:24:31 437.675
ITUPSAT 1 11 Feb 06:17:30 06:20:35 17° 64° (ENE) 06:23:42 437.325
QB50P2 11 Feb 06:17:47 06:21:25 29° 290° (WNW) 06:25:03 145.880/145.840
PHONESAT 2.4 11 Feb 06:20:54 06:23:57 36° 156° (SSE) 06:27:00 2401.200-2431.200
BEESAT 11 Feb 06:24:46 06:28:17 21° 66° (ENE) 06:31:48 436.000
DANDE 11 Feb 06:27:29 06:31:59 16° 78° (ENE) 06:36:40 436.750
JAS-2 11 Feb 06:36:55 06:39:35 14° 88° (E) 06:42:11 435.910
SPROUT 11 Feb 06:41:52 06:44:45 18° 267° (W) 06:47:40 437.525
TISAT 1 11 Feb 06:45:21 06:49:21 40° 261° (W) 06:53:20 437.305
BEESAT 3 11 Feb 06:46:41 06:49:31 18° 47° (NE) 06:52:19 437.485
POPSAT HIP 1 11 Feb 06:48:16 06:50:41 15° 295° (WNW) 06:53:07 437.405
NANOSAT C BR1 11 Feb 06:52:30 06:54:41 14° 295° (WNW) 06:56:51 145.865
DUCHIFAT 1 11 Feb 06:53:23 06:55:37 14° 295° (WNW) 06:57:50 145.980
Cosmos 2491 11 Feb 06:57:12 07:04:21 27° 69° (ENE) 07:11:27 435.465 / 435.565
QB50P1 11 Feb 07:01:57 07:03:07 11° 297° (WNW) 07:04:15 145.935-145.965
BEESAT 2 11 Feb 07:12:40 07:15:49 22° 48° (NE) 07:18:56 435.950
SWISSCUBE 11 Feb 07:15:46 07:20:31 76° 75° (ENE) 07:25:18 437.505
CUSAT 1 11 Feb 07:23:18 07:31:10 69° 95° (E) 07:39:09 437.405
Oscar 19 11 Feb 07:32:29 07:37:37 72° 102° (ESE) 07:42:44 437.125/150
YUBILEINY 11 Feb 07:46:46 07:53:09 23° 80° (E) 07:59:32 435.215
KKS-1 11 Feb 07:46:47 07:49:57 19° 66° (ENE) 07:53:07 437.445
ITUPSAT 1 11 Feb 07:53:25 07:58:01 49° 260° (W) 08:02:41 437.325
PHONESAT 2.4 11 Feb 07:57:49 08:01:06 78° 350° (N) 08:04:23 2401.200-2431.200
BEESAT 11 Feb 08:01:19 08:05:46 40° 261° (W) 08:10:16 436.000
DANDE 11 Feb 08:05:50 08:13:34 82° 97° (E) 08:22:07 436.750
Gurwin Techsat 1B 11 Feb 08:12:30 08:17:48 64° 101° (ESE) 08:23:04 435.225
JAS-2 11 Feb 08:19:48 08:25:22 64° 287° (WNW) 08:30:30 435.910
BEESAT 3 11 Feb 08:23:43 08:27:26 40° 244° (WSW) 08:31:07 437.485
ITAMSAT 1 11 Feb 08:43:46 08:49:00 65° 102° (ESE) 08:54:11 435.822/435.867
BEESAT 2 11 Feb 08:50:10 08:53:46 33° 246° (WSW) 08:57:19 435.950
Cosmos 2491 11 Feb 08:53:10 09:01:46 64° 268° (W) 09:10:24 435.465 / 435.565
SWISSCUBE 11 Feb 08:58:24 08:58:50 10° 270° (W) 08:59:17 437.505
STARS 11 Feb 09:01:31 09:05:53 67° 75° (ENE) 09:10:16 437.465
CUSAT 1 11 Feb 09:07:28 09:14:00 27° 292° (WNW) 09:20:32 437.405
Oscar 19 11 Feb 09:13:46 09:16:18 14° 299° (WNW) 09:18:51 437.125/150
AO-7 11 Feb 09:14:45 09:22:20 37° 98° (E) 09:29:48 29.400- 29.500
AIST 2 11 Feb 09:16:30 09:20:27 43° 54° (NE) 09:24:22 435.215
KKS-1 11 Feb 09:22:05 09:26:14 38° 261° (W) 09:30:25 437.445
MOZHAYETS 4 11 Feb 09:23:48 09:28:20 79° 77° (ENE) 09:32:57
PHONESAT 2.4 11 Feb 09:35:11 09:38:28 78° 8° (N) 09:41:44 2401.200-2431.200
YUBILEINY 11 Feb 09:40:16 09:49:01 71° 280° (W) 09:57:52 435.215
DANDE 11 Feb 09:51:26 09:57:30 23° 296° (WNW) 10:03:54 436.750
Gurwin Techsat 1B 11 Feb 09:53:57 09:57:11 17° 298° (WNW) 10:00:26 435.225
CUBESAT XI-V 11 Feb 10:08:47 10:12:32 24° 68° (ENE) 10:16:18 437.345
ITAMSAT 1 11 Feb 10:24:48 10:27:54 16° 298° (WNW) 10:30:59 435.822/435.867
Cosmos 2504 11 Feb 10:26:47 10:35:03 55° 90° (E) 10:43:37 435.465 / 435.565
SO-50 11 Feb 10:27:15 10:32:05 66° 118° (ESE) 10:37:01 436.795
M-CUBED/EXP-1 PRIME 11 Feb 10:30:46 10:34:12 77° 107° (ESE) 10:37:50 437.505
AUBIESAT-1 11 Feb 10:39:25 10:42:53 81° 107° (ESE) 10:46:35 437.475
HORYU 2 11 Feb 10:40:57 10:45:25 88° 97° (E) 10:49:53 437.375
STARS 11 Feb 10:42:19 10:42:40 10° 270° (W) 10:43:02 437.465
AIST 2 11 Feb 10:56:02 10:58:36 16° 250° (WSW) 11:01:09 435.215
AO-7 11 Feb 11:07:19 11:15:11 48° 296° (WNW) 11:23:00 29.400- 29.500
PHONESAT 2.4 11 Feb 11:12:34 11:15:37 36° 205° (SSW) 11:18:39 2401.200-2431.200
STRAND 1 11 Feb 11:20:25 11:24:00 19° 64° (ENE) 11:27:35 437.568
LilacSat-2 11 Feb 11:33:42 11:35:58 15° 93° (E) 11:38:15 437.200
YUBILEINY 11 Feb 11:43:40 11:47:34 13° 301° (WNW) 11:51:29 435.215
CUBESAT XI-V 11 Feb 11:45:31 11:49:44 33° 264° (W) 11:54:00 437.345
SO-50 11 Feb 12:09:35 12:13:03 19° 317° (NW) 12:16:34 436.795
CUTE-I 11 Feb 12:10:17 12:15:33 52° 100° (E) 12:20:46 437.470
Cosmos 2504 11 Feb 12:21:14 12:28:46 33° 289° (WNW) 12:36:35 435.465 / 435.565
Cubesat XI-IV 11 Feb 12:24:22 12:29:45 70° 102° (ESE) 12:35:07 437.490
BRITE-PL 11 Feb 12:27:53 12:32:16 39° 97° (E) 12:36:21 437.365/2234.400
PRISM 11 Feb 12:44:33 12:48:21 36° 71° (ENE) 12:52:12 437.425
STRAND 1 11 Feb 12:57:50 13:02:46 50° 260° (W) 13:07:46 437.568
DOVE 4 11 Feb 13:01:34 13:04:43 20° 94° (E) 13:07:48 437.250
LilacSat-2 11 Feb 13:06:59 13:10:23 32° 288° (WNW) 13:13:46 437.200
O/OREOS (USA 219) 11 Feb 13:07:07 13:11:09 34° 104° (ESE) 13:15:14 437.305
GONETS M04 11 Feb 13:13:28 13:18:45 18° 78° (ENE) 13:24:00
GOMX 1 11 Feb 13:26:32 13:30:57 86° 100° (E) 13:35:08 467.674
CUTE 1.7 + AOD 2 11 Feb 13:37:24 13:40:42 21° 94° (E) 13:44:00 437.475
SEEDS 11 Feb 13:41:36 13:44:31 18° 93° (E) 13:47:24 437.485
CINEMA 3 11 Feb 13:45:35 13:48:45 21° 95° (E) 13:51:55 145.822/145.860
HO-68 11 Feb 13:49:51 13:56:31 39° 98° (E) 14:03:07 435.675
CUTE-I 11 Feb 13:51:19 13:55:11 20° 296° (WNW) 13:59:02 437.470
AAUSAT CUBESAT 2 11 Feb 13:52:49 13:55:00 14° 92° (E) 13:57:11 437.432
Cubesat XI-IV 11 Feb 14:06:09 14:09:13 16° 299° (WNW) 14:12:16 437.490
BRITE-PL 11 Feb 14:07:11 14:10:24 19° 296° (WNW) 14:13:28 437.365/2234.400
PRISM 11 Feb 14:21:02 14:23:48 17° 266° (W) 14:26:35 437.425
CANX-2 11 Feb 14:21:58 14:26:17 81° 102° (ESE) 14:30:35 2200.000
ZACube-1 11 Feb 14:32:49 14:34:35 12° 91° (E) 14:36:21 437.345
DOVE 4 11 Feb 14:38:50 14:42:29 29° 290° (WNW) 14:46:03 437.250
FUNcube-1 11 Feb 14:40:34 14:42:57 15° 92° (E) 14:45:20 145.935
O/OREOS (USA 219) 11 Feb 14:47:09 14:50:37 22° 302° (WNW) 14:54:09 437.305
ANTELSAT 11 Feb 14:47:26 14:50:25 19° 67° (ENE) 14:53:23 437.575/2403.000
TIGRISAT 11 Feb 14:53:34 14:56:45 21° 68° (ENE) 14:59:55 435.000
DELFI C3 11 Feb 14:55:11 14:57:28 15° 92° (E) 14:59:47 145.870
COMPASS 1 11 Feb 14:59:17 15:03:32 78° 283° (WNW) 15:07:45 437.405
GONETS M04 11 Feb 15:05:38 15:14:19 85° 277° (W) 15:23:06
Oscar 11 11 Feb 15:09:58 15:14:08 43° 99° (E) 15:18:17 145.826/435.025
CUTE 1.7 + AOD 2 11 Feb 15:12:48 15:16:34 30° 289° (WNW) 15:20:19 437.475
UWE-3 11 Feb 15:16:16 15:20:27 58° 100° (E) 15:24:41 435.000/436.395/437.385
SEEDS 11 Feb 15:16:25 15:20:20 36° 288° (WNW) 15:24:13 437.485
CUBEBUG 2 11 Feb 15:18:39 15:22:52 88° 108° (ESE) 15:27:10 437.445
CINEMA 3 11 Feb 15:22:20 15:25:55 28° 290° (WNW) 15:29:31 145.822/145.860
Cosmos 2499 11 Feb 15:23:18 15:31:47 60° 91° (E) 15:40:27 435.465 / 435.565
AAUSAT CUBESAT 2 11 Feb 15:26:43 15:30:44 45° 287° (WNW) 15:34:44 437.432
AO-85 11 Feb 15:28:08 15:33:08 43° 114° (ESE) 15:38:19 145.980
POLYITAN 1 11 Feb 15:34:31 15:36:52 15° 65° (ENE) 15:39:14 437.675
QB50P2 11 Feb 15:34:56 15:37:25 15° 66° (ENE) 15:39:55 145.880/145.840
UNISAT 6 11 Feb 15:37:30 15:41:46 68° 76° (ENE) 15:46:02 437.425
HO-68 11 Feb 15:37:36 15:44:09 40° 295° (WNW) 15:50:42 435.675
POPSAT HIP 1 11 Feb 16:02:56 16:06:36 29° 70° (ENE) 16:10:16 437.405
NANOSAT C BR1 11 Feb 16:06:35 16:10:18 31° 71° (ENE) 16:14:02 145.865
ZACube-1 11 Feb 16:07:02 16:11:08 52° 286° (WNW) 16:15:19 437.345
DUCHIFAT 1 11 Feb 16:07:21 16:11:02 30° 71° (ENE) 16:14:44 145.980
HUMSAT D 11 Feb 16:12:40 16:16:44 49° 99° (E) 16:20:50 437.325/437.525
JUGNU 11 Feb 16:12:53 16:13:20 10° 185° (S) 16:13:47 437.505
QB50P1 11 Feb 16:15:04 16:19:02 40° 72° (ENE) 16:23:00 145.935-145.965
FUNcube-1 11 Feb 16:15:22 16:19:23 44° 287° (WNW) 16:23:28 145.935
ANTELSAT 11 Feb 16:22:55 16:26:53 36° 262° (W) 16:30:50 437.575/2403.000
50 SAT 11 Feb 16:24:38 16:26:23 13° 92° (E) 16:28:08 437.505
VELOX 1 11 Feb 16:26:01 16:27:38 12° 91° (E) 16:29:15 145.980
PCSat 11 Feb 16:28:22 16:33:47 80° 117° (ESE) 16:39:14 145.827
DELFI C3 11 Feb 16:28:46 16:32:33 39° 287° (WNW) 16:36:20 145.870
TIGRISAT 11 Feb 16:29:23 16:33:15 32° 263° (W) 16:37:06 435.000
AIST 1 11 Feb 16:35:59 16:40:22 79° 278° (W) 16:44:48
RS-15 11 Feb 16:39:39 16:50:09 52° 110° (ESE) 17:01:10 29.354- 29.394
AISAT 11 Feb 16:41:38 16:44:48 19° 94° (E) 16:47:56 437.250
UKube-1 11 Feb 16:46:00 16:48:59 18° 94° (E) 16:51:58 .
Oscar 11 11 Feb 16:47:12 16:49:55 16° 294° (WNW) 16:52:37 145.826/435.025
UWE-3 11 Feb 16:54:50 16:56:27 12° 295° (WNW) 16:58:05 435.000/436.395/437.385
CUBEBUG 1 11 Feb 16:56:34 17:00:00 22° 95° (E) 17:03:24 437.445
DX 1 11 Feb 17:00:07 17:04:00 31° 97° (E) 17:07:51 434.975-435.025
BUGSAT 1 11 Feb 17:01:45 17:05:55 68° 75° (ENE) 17:10:04 437.445
GONETS M04 11 Feb 17:07:22 17:12:30 17° 298° (WNW) 17:17:42
POLYITAN 1 11 Feb 17:08:14 17:12:18 46° 261° (W) 17:16:23 437.675
QB50P2 11 Feb 17:08:50 17:12:52 44° 261° (W) 17:16:56 145.880/145.840
ESTCUBE 1 11 Feb 17:08:51 17:13:12 43° 99° (E) 17:17:29 437.505/2401.250
AO-85 11 Feb 17:09:06 17:13:50 30° 312° (NW) 17:18:38 145.980
Oscar 19 11 Feb 17:13:02 17:14:46 12° 60° (ENE) 17:16:30 437.125/150
Cosmos 2499 11 Feb 17:17:54 17:25:22 31° 290° (WNW) 17:33:00 435.465 / 435.565
POPSAT HIP 1 11 Feb 17:39:06 17:42:23 22° 265° (W) 17:45:40 437.405
NANOSAT C BR1 11 Feb 17:42:56 17:46:05 20° 266° (W) 17:49:14 145.865
DUCHIFAT 1 11 Feb 17:43:35 17:46:46 21° 265° (W) 17:49:57 145.980
HUMSAT D 11 Feb 17:49:51 17:51:58 14° 295° (WNW) 17:54:04 437.325/437.525
SRMSAT 11 Feb 17:51:10 17:52:22 11° 182° (S) 17:53:34 437.500
QB50P1 11 Feb 17:52:25 17:54:59 16° 267° (W) 17:57:33 145.935-145.965
Gurwin Techsat 1B 11 Feb 17:56:54 17:58:39 12° 59° (ENE) 18:00:26 435.225
50 SAT 11 Feb 17:57:00 18:00:35 39° 287° (WNW) 18:04:09 437.505
VELOX 1 11 Feb 18:00:07 18:04:28 58° 286° (WNW) 18:08:46 145.980
CUSAT 1 11 Feb 18:03:55 18:09:07 37° 71° (ENE) 18:13:07 437.405
PCSat 11 Feb 18:14:23 18:17:50 17° 315° (NW) 18:21:18 145.827
AISAT 11 Feb 18:17:22 18:21:23 35° 290° (WNW) 18:25:23 437.250
UKube-1 11 Feb 18:21:11 18:25:10 36° 289° (WNW) 18:29:06 .
ITAMSAT 1 11 Feb 18:25:46 18:27:11 11° 59° (ENE) 18:28:37 435.822/435.867
SPROUT 11 Feb 18:27:21 18:31:37 86° 100° (E) 18:35:53 437.525
JAS-2 11 Feb 18:28:21 18:35:41 52° 71° (ENE) 18:42:24 435.910
TISAT 1 11 Feb 18:30:28 18:34:11 31° 97° (E) 18:37:53 437.305
CUBEBUG 1 11 Feb 18:32:30 18:36:18 30° 290° (WNW) 18:40:03 437.445
DX 1 11 Feb 18:36:39 18:40:00 22° 293° (WNW) 18:43:21 434.975-435.025
ESTCUBE 1 11 Feb 18:46:36 18:49:39 18° 295° (WNW) 18:52:41 437.505/2401.250
Oscar 19 11 Feb 18:48:08 18:53:19 88° 254° (WSW) 18:58:32 437.125/150
DANDE 11 Feb 18:50:12 18:56:59 60° 76° (ENE) 19:02:02 436.750
RS-15 11 Feb 18:51:55 19:02:39 49° 314° (NW) 19:14:00 29.354- 29.394
SO-50 11 Feb 19:00:01 19:04:40 44° 53° (NE) 19:09:06 436.795
SWISSCUBE 11 Feb 19:17:50 19:21:29 21° 94° (E) 19:25:05 437.505
Gurwin Techsat 1B 11 Feb 19:32:29 19:37:48 90° 80° (E) 19:43:09 435.225
CUSAT 1 11 Feb 19:47:05 19:50:49 19° 278° (W) 19:53:57 437.405
YUBILEINY 11 Feb 19:51:51 20:00:31 56° 78° (ENE) 20:09:06 435.215
ITUPSAT 1 11 Feb 19:54:49 19:59:27 45° 99° (E) 20:04:03 437.325
Cosmos 2491 11 Feb 19:57:34 20:04:54 32° 84° (E) 20:12:11 435.465 / 435.565
ITAMSAT 1 11 Feb 20:00:38 20:05:49 88° 82° (E) 20:11:04 435.822/435.867
BEESAT 11 Feb 20:02:05 20:06:49 55° 100° (E) 20:11:30 436.000
TISAT 1 11 Feb 20:06:34 20:09:39 20° 293° (WNW) 20:12:44 437.305
AO-7 11 Feb 20:12:22 20:20:14 47° 64° (ENE) 20:28:06 29.400- 29.500
JAS-2 11 Feb 20:14:15 20:20:47 30° 265° (W) 20:26:55 435.910
Cosmos 2504 11 Feb 20:22:39 20:28:14 19° 63° (ENE) 20:33:35 435.465 / 435.565
ISS 11 Feb 20:33:56 20:36:55 35° 135° (SE) 20:39:55 145.825
DANDE 11 Feb 20:34:47 20:38:51 18° 281° (W) 20:42:20 436.750
SO-50 11 Feb 20:41:18 20:44:48 21° 250° (WSW) 20:48:13 436.795
STARS 11 Feb 20:53:53 20:55:52 13° 92° (E) 20:57:51 437.465
SWISSCUBE 11 Feb 20:54:55 20:59:23 39° 289° (WNW) 21:03:48 437.505
RS-15 11 Feb 21:10:57 21:19:07 21° 346° (NNW) 21:27:35 29.354- 29.394
KKS-1 11 Feb 21:13:49 21:18:02 41° 99° (E) 21:22:12 437.445
M-CUBED/EXP-1 PRIME 11 Feb 21:17:12 21:20:51 86° 72° (ENE) 21:24:17 437.505
MOZHAYETS 4 11 Feb 21:20:39 21:24:06 20° 94° (E) 21:27:33
AUBIESAT-1 11 Feb 21:25:23 21:29:01 88° 81° (E) 21:32:27 437.475
ITUPSAT 1 11 Feb 21:33:34 21:36:56 19° 295° (WNW) 21:40:19 437.325
HORYU 2 11 Feb 21:37:45 21:42:09 70° 75° (ENE) 21:46:33 437.375
BEESAT 11 Feb 21:41:15 21:44:08 16° 297° (WNW) 21:47:00 436.000
YUBILEINY 11 Feb 21:49:27 21:56:46 31° 277° (W) 22:04:04 435.215
Cosmos 2491 11 Feb 21:52:48 22:01:14 53° 283° (WNW) 22:09:45 435.465 / 435.565
AO-7 11 Feb 22:05:26 22:13:03 38° 261° (W) 22:20:43 29.400- 29.500
Cubesat XI-IV 11 Feb 22:08:52 22:11:21 13° 60° (ENE) 22:13:50 437.490
ISS 11 Feb 22:10:35 22:13:25 26° 332° (NNW) 22:16:14 145.825
BEESAT 3 11 Feb 22:13:37 22:17:20 40° 116° (ESE) 22:21:06 437.485
Cosmos 2504 11 Feb 22:14:15 22:22:53 87° 265° (W) 22:30:51 435.465 / 435.565
STARS 11 Feb 22:28:17 22:32:32 52° 287° (WNW) 22:36:47 437.465
BEESAT 2 11 Feb 22:40:58 22:44:52 52° 118° (ESE) 22:48:48 435.950
KKS-1 11 Feb 22:51:20 22:54:16 18° 295° (WNW) 22:57:11 437.445
MOZHAYETS 4 11 Feb 22:57:06 23:01:22 37° 289° (WNW) 23:05:39
GOMX 1 11 Feb 22:59:30 23:00:18 10° 61° (ENE) 23:01:07 467.674
AIST 2 11 Feb 23:15:46 23:17:08 11° 108° (ESE) 23:18:31 435.215
O/OREOS (USA 219) 11 Feb 23:17:35 23:22:07 57° 66° (ENE) 23:26:39 437.305
RS-15 11 Feb 23:28:39 23:37:46 24° 22° (NNE) 23:47:03 29.354- 29.394
CUTE-I 11 Feb 23:31:03 23:36:20 76° 75° (ENE) 23:41:42 437.470
BRITE-PL 11 Feb 23:36:04 23:41:29 47° 72° (ENE) 23:46:46 437.365/2234.400
CUBESAT XI-V 11 Feb 23:42:34 23:47:15 67° 101° (E) 23:51:54 437.345
Cubesat XI-IV 11 Feb 23:45:22 23:50:42 80° 256° (WSW) 23:56:04 437.490
LilacSat-2 11 Feb 23:47:23 23:51:11 81° 259° (WSW) 23:55:00 437.200
ISS 11 Feb 23:50:08 23:50:44 10° 352° (N) 23:51:20 145.825
BEESAT 3 11 Feb 23:52:24 23:55:16 19° 313° (NW) 23:58:08 437.485
AO-85 12 Feb 00:01:33 00:06:05 29° 48° (NE) 00:10:17 145.980
DOVE 4 12 Feb 00:05:31 00:09:27 23° 68° (ENE) 00:13:15 437.250
Cosmos 2504 12 Feb 00:10:21 00:14:48 16° 284° (WNW) 00:19:07 435.465 / 435.565
HO-68 12 Feb 00:18:06 00:23:52 27° 60° (ENE) 00:29:39 435.675
BEESAT 2 12 Feb 00:20:33 00:23:04 16° 315° (NW) 00:25:36 435.950
CUTE 1.7 + AOD 2 12 Feb 00:30:18 00:32:30 14° 65° (ENE) 00:34:43 437.475
GOMX 1 12 Feb 00:32:13 00:37:38 82° 77° (ENE) 00:42:49 467.674
SEEDS 12 Feb 00:34:12 00:35:32 11° 64° (ENE) 00:36:52 437.485
CINEMA 3 12 Feb 00:46:31 00:49:46 20° 68° (ENE) 00:52:56 145.822/145.860
